Port Angeles, WA
on Sunday, January 13, 2013

Sunday
Previous Day Next Day
Daily Summary
 ActualAverageRecord
Temperature
Mean Temperature °F °F  
Max Temperature 37°F 46°F 59°F (1991)
Min Temperature 27°F 34°F 10°F (1950)
Degree Days
Heating Degree Days 33    
Moisture
Dew Point 26°F   
Average Humidity 77    
Maximum Humidity 89    
Minimum Humidity 67    
Precipitation
Precipitation 0.00 in in in ()
Wind
Wind Speed 10 mph   
Max Wind Speed 10 mph   
Max Gust Speed mph   
Visibility 10 miles   
Events     
Averages and records for this station are not official NWS values.
Key: T is trace of precipitation, MM is missing value
Source: NWS Daily Summary
Seasonal Weather Averages
Time(PST)TemperatureDew PointHumidity Pressure Visibility Wind DirectionWind SpeedGust SpeedPrecipitationEvents Conditions
12:53 AM 27.0°F 21.9°F 81% 30.45 in 10.0 miles North - - N/A   Clear
1:53 AM 28.0°F 21.9°F 78% 30.45 in 10.0 miles North - - N/A   Partly Cloudy
2:53 AM 28.9°F 21.9°F 75% 30.45 in 10.0 miles North - - N/A   Clear
3:53 AM 28.0°F 21.9°F 78% 30.45 in 10.0 miles SW 10.4 mph - N/A   Unknown
4:53 AM 28.0°F 21.9°F 78% 30.44 in 10.0 miles North - - N/A   Clear
5:53 AM 27.0°F 21.9°F 81% 30.45 in 10.0 miles North - - N/A   Clear
6:53 AM 28.0°F 21.9°F 78% 30.46 in 10.0 miles North - - N/A   Clear
7:53 AM 27.0°F 21.9°F 81% 30.46 in 10.0 miles North - - N/A   Partly Cloudy
8:40 AM 28.9°F 23.0°F 78% 30.45 in 10.0 miles North - - N/A   Mostly Cloudy
8:53 AM 30.0°F 24.1°F 79% 30.48 in 10.0 miles North - - N/A   Mostly Cloudy
9:25 AM 30.0°F 24.1°F 79% 30.47 in 10.0 miles North - - N/A   Scattered Clouds
9:53 AM 32.0°F 25.0°F 75% 30.48 in 10.0 miles North - - N/A   Scattered Clouds
10:06 AM 32.0°F 26.1°F 79% 30.45 in 10.0 miles North - - N/A   Mostly Cloudy
10:53 AM 34.0°F 25.0°F 70% 30.47 in 10.0 miles North - - N/A   Overcast
11:05 AM 34.0°F 25.0°F 70% 30.45 in 10.0 miles North - - N/A   Overcast
11:53 AM 37.0°F 27.0°F 67% 30.46 in 10.0 miles North - - N/A   Clear
12:53 PM 37.9°F 30.0°F 73% 30.45 in 10.0 miles North - - N/A   Mostly Cloudy
1:20 PM 37.9°F 30.0°F 73% 30.43 in 10.0 miles North - - N/A   Partly Cloudy
1:53 PM 37.9°F 28.9°F 70% 30.45 in 10.0 miles North - - N/A   Partly Cloudy
2:53 PM 37.9°F 28.9°F 70% 30.44 in 10.0 miles North - - N/A   Clear
3:53 PM 37.9°F 28.9°F 70% 30.47 in 10.0 miles North - - N/A   Mostly Cloudy
4:53 PM 36.0°F 28.9°F 76% 30.46 in 10.0 miles North - - N/A   Overcast
5:53 PM 35.1°F 28.9°F 78% 30.46 in 10.0 miles North - - N/A   Overcast
6:53 PM 33.1°F 30.0°F 89% 30.43 in 10.0 miles North - - N/A   Overcast
7:53 PM 35.1°F 28.9°F 78% 30.47 in 10.0 miles North - - N/A   Overcast
8:53 PM 34.0°F 28.9°F 82% 30.47 in 10.0 miles North - - N/A   Overcast
9:53 PM 34.0°F 30.0°F 85% 30.46 in 10.0 miles North - - N/A   Overcast
10:53 PM 34.0°F 30.0°F 85% 30.47 in 10.0 miles North - - N/A   Overcast
11:53 PM 34.0°F 30.0°F 85% 30.46 in 10.0 miles North - - N/A   Overcast
Moon Phase
Jan. 13 Jan. 18 Jan. 26 Feb. 03 Feb. 10
Sunrise:08:00 AM (PST) Moon Rise:08:48 AM (PST)1/13
Sunset:04:45 PM (PST) Moon Set:07:46 PM (PST)1/13

Copyright © 2014 The Weather Underground, Inc.